FW0201 Weather Reports


Display with metric or nautical units.
time (UTC)temp
F
wind
direction
speed
MPH
gust
MPH
rain 1hr
in
rain 24hr
in
rain mn
in
humidity
%
barometer
mb
20180821150007 54 45 4.0 5.0 0.00 0.00 0.00 88 1032.2
20180821145505 54 22 4.0 6.0 0.00 0.00 0.00 88 1032.3
20180821145006 54 29 5.0 6.0 0.00 0.00 0.00 87 1032.3
20180821144505 54 29 4.0 6.0 0.00 0.00 0.00 87 1032.3
20180821144005 54 18 4.0 5.0 0.00 0.00 0.00 87 1032.5
20180821143505 54 360 3.0 5.0 0.00 0.00 0.00 86 1032.5
20180821143005 54 6 4.0 5.0 0.00 0.00 0.00 86 1032.4
20180821142504 54 360 4.0 5.0 0.00 0.00 0.00 86 1032.3
20180821142005 54 22 4.0 6.0 0.00 0.00 0.00 85 1032.1
20180821141505 54 337 4.0 5.0 0.00 0.00 0.00 85 1032.3
20180821141006 54 346 4.0 5.0 0.00 0.00 0.00 84 1032.1
20180821140504 54 337 4.0 5.0 0.00 0.00 0.00 84 1032.1
20180821140005 54 351 5.0 5.0 0.00 0.00 0.00 84 1032.0
20180821135505 54 22 4.0 5.0 0.00 0.00 0.00 83 1032.1
20180821135007 54 32 4.0 5.0 0.00 0.00 0.00 83 1032.1
20180821134505 53 22 4.0 5.0 0.00 0.00 0.00 83 1031.8
20180821134006 53 45 4.0 5.0 0.00 0.00 0.00 84 1031.4
20180821133505 53 67 5.0 6.0 0.00 0.00 0.00 84 1031.2
20180821133006 53 67 4.0 6.0 0.00 0.00 0.00 85 1031.1
20180821132504 53 67 4.0 5.0 0.00 0.00 0.00 86 1031.2
20180821132006 53 45 3.0 3.0 0.00 0.00 0.00 87 1031.5
20180821131505 52 45 2.0 3.0 0.00 0.00 0.00 87 1031.5
20180821131005 52 45 2.0 3.0 0.00 0.00 0.00 88 1031.4
20180821130505 52 45 3.0 4.0 0.00 0.00 0.00 87 1031.3
20180821130006 52 22 3.0 4.0 0.00 0.00 0.00 88 1031.4
20180821125504 52 22 3.0 4.0 0.00 0.00 0.00 88 1031.5
20180821125005 52 22 3.0 4.0 0.00 0.00 0.00 88 1031.6
20180821124504 52 22 3.0 4.0 0.00 0.00 0.00 88 1031.5
20180821124005 52 22 3.0 4.0 0.00 0.00 0.00 88 1031.3
20180821123504 52 354 3.0 4.0 0.00 0.00 0.00 88 1031.5
20180821123006 52 337 2.0 2.0 0.00 0.00 0.00 88 1031.5
20180821122505 52 337 2.0 2.0 0.00 0.00 0.00 88 1031.4
20180821122006 52 337 2.0 3.0 0.00 0.00 0.00 88 1031.2
20180821121504 52 337 2.0 2.0 0.00 0.00 0.00 89 1031.0
20180821121006 52 337 0.0 1.0 0.00 0.00 0.00 89 1030.9
20180821120504 52 337 1.0 1.0 0.00 0.00 0.00 88 1030.8
20180821120006 51 337 0.0 0.0 0.00 0.00 0.00 89 1030.7
20180821115504 51 337 0.0 1.0 0.00 0.00 0.00 89 1030.5
20180821115006 51 337 1.0 2.0 0.00 0.00 0.00 89 1030.5
20180821114505 51 337 2.0 2.0 0.00 0.00 0.00 89 1030.5
20180821114005 51 337 3.0 3.0 0.00 0.00 0.00 89 1030.6
20180821113505 51 337 3.0 4.0 0.00 0.00 0.00 89 1030.7
20180821113005 51 292 3.0 3.0 0.00 0.00 0.00 89 1030.7
20180821112505 51 292 3.0 4.0 0.00 0.00 0.00 89 1030.6
20180821112005 50 299 4.0 5.0 0.00 0.00 0.00 89 1030.5
20180821111505 50 315 3.0 4.0 0.00 0.00 0.00 90 1030.5
20180821111006 50 337 1.0 2.0 0.00 0.00 0.00 89 1030.2
20180821110507 50 67 0.0 0.0 0.00 0.00 0.00 88 1030.1
20180821110006 49 67 0.0 0.0 0.00 0.00 0.00 88 1030.0
20180821105505 49 67 0.0 0.0 0.00 0.00 0.00 87 1029.9
20180821105005 50 67 0.0 0.0 0.00 0.00 0.00 87 1029.9
20180821104504 50 67 0.0 0.0 0.00 0.00 0.00 86 1029.7
20180821104006 50 67 2.0 2.0 0.00 0.00 0.00 86 1029.6
20180821103504 50 67 1.0 1.0 0.00 0.00 0.00 84 1029.5
20180821103005 50 157 0.0 0.0 0.00 0.00 0.00 84 1029.3
20180821102505 50 157 0.0 0.0 0.00 0.00 0.00 84 1029.3
20180821102005 50 157 0.0 1.0 0.00 0.00 0.00 85 1029.2
20180821101505 50 157 1.0 2.0 0.00 0.00 0.00 84 1029.3
20180821101005 50 157 2.0 2.0 0.00 0.00 0.00 85 1029.2
20180821100505 50 157 3.0 3.0 0.00 0.00 0.00 84 1029.1
20180821100006 50 157 3.0 3.0 0.00 0.00 0.00 84 1028.9
20180821095504 50 157 3.0 4.0 0.00 0.00 0.00 85 1028.9
20180821095005 50 157 3.0 4.0 0.00 0.00 0.00 86 1028.9
20180821094504 50 157 4.0 5.0 0.00 0.00 0.00 86 1028.9
20180821094004 50 157 3.0 5.0 0.00 0.00 0.00 86 1029.0
20180821093504 50 157 3.0 4.0 0.00 0.00 0.00 86 1029.0
20180821093006 50 157 3.0 4.0 0.00 0.00 0.00 85 1029.0
20180821092506 50 157 4.0 5.0 0.00 0.00 0.00 86 1029.0
20180821092005 50 157 5.0 6.0 0.00 0.00 0.00 85 1028.9
20180821091006 49 157 3.0 4.0 0.00 0.00 0.00 88 1029.2
20180821090505 48 157 4.0 5.0 0.00 0.00 0.00 87 1029.2
20180821090006 48 157 3.0 4.0 0.00 0.00 0.00 89 1029.2
20180821085504 48 157 2.0 3.0 0.00 0.00 0.00 88 1029.2
20180821085005 48 157 2.0 3.0 0.00 0.00 0.00 87 1029.1
20180821084504 48 157 3.0 3.0 0.00 0.00 0.00 88 1029.1
20180821084005 48 157 3.0 4.0 0.00 0.00 0.00 88 1029.1
20180821083505 48 157 4.0 5.0 0.00 0.00 0.00 88 1029.2
20180821082505 47 157 3.0 4.0 0.00 0.00 0.00 88 1029.3
20180821082006 47 157 2.0 3.0 0.00 0.00 0.00 87 1029.4
20180821081505 47 157 2.0 2.0 0.00 0.00 0.00 87 1029.4
20180821081004 47 157 2.0 3.0 0.00 0.00 0.00 87 1029.3
20180821080504 48 157 3.0 3.0 0.00 0.00 0.00 86 1029.3
20180821080006 48 202 2.0 2.0 0.00 0.00 0.00 87 1029.4
20180821075505 48 202 2.0 3.0 0.00 0.00 0.00 87 1029.6
20180821075005 47 202 0.0 0.0 0.00 0.00 0.00 87 1029.5
20180821074504 47 202 1.0 1.0 0.00 0.00 0.00 86 1029.6
20180821074005 47 202 2.0 2.0 0.00 0.00 0.00 87 1029.6
20180821073504 47 202 2.0 2.0 0.00 0.00 0.00 86 1029.7
20180821073005 48 202 3.0 4.0 0.00 0.00 0.00 86 1029.9
20180821072505 48 202 4.0 5.0 0.00 0.00 0.00 86 1029.9
20180821072005 47 202 3.0 4.0 0.00 0.00 0.00 86 1029.7
20180821071504 47 157 1.0 2.0 0.00 0.00 0.00 85 1029.6
20180821071006 47 157 2.0 2.0 0.00 0.00 0.00 86 1029.7
20180821070505 47 157 3.0 3.0 0.00 0.00 0.00 85 1029.7
20180821070006 47 157 3.0 4.0 0.00 0.00 0.00 85 1029.6
20180821065505 48 157 3.0 4.0 0.00 0.00 0.00 85 1029.6
20180821065005 48 157 3.0 3.0 0.00 0.00 0.00 85 1029.5
20180821064504 47 157 3.0 4.0 0.00 0.00 0.00 84 1029.7
20180821064005 47 180 1.0 1.0 0.00 0.00 0.00 85 1029.8
20180821063504 48 180 2.0 2.0 0.00 0.00 0.00 85 1029.9
20180821063006 48 180 1.0 1.0 0.00 0.00 0.00 85 1030.0
20180821062505 48 180 3.0 3.0 0.00 0.00 0.00 83 1030.1
20180821062005 48 180 2.0 3.0 0.00 0.00 0.00 84 1030.0
20180821061504 48 180 1.0 1.0 0.00 0.00 0.00 82 1029.9
20180821061005 48 180 1.0 2.0 0.00 0.00 0.00 82 1030.0
20180821060505 48 180 3.0 4.0 0.00 0.00 0.00 82 1030.0
20180821055504 49 180 2.0 2.0 0.00 0.00 0.00 80 1030.1
20180821055005 49 180 2.0 3.0 0.00 0.00 0.00 79 1030.1
20180821054504 50 180 2.0 3.0 0.00 0.00 0.00 78 1030.1
20180821054005 50 180 2.0 2.0 0.00 0.00 0.00 78 1029.9
20180821053505 51 180 0.0 0.0 0.00 0.00 0.00 77 1029.8
20180821053005 51 180 0.0 0.0 0.00 0.00 0.00 77 1029.8
20180821052505 51 180 0.0 0.0 0.00 0.00 0.00 78 1029.9
20180821052005 50 180 1.0 1.0 0.00 0.00 0.00 78 1029.9
20180821051505 50 180 1.0 1.0 0.00 0.00 0.00 78 1029.9
20180821051005 51 180 0.0 0.0 0.00 0.00 0.00 78 1029.8
20180821050505 50 180 1.0 2.0 0.00 0.00 0.00 78 1029.8
20180821050006 50 180 1.0 2.0 0.00 0.00 0.00 79 1029.9
20180821045504 50 180 1.0 1.0 0.00 0.00 0.00 78 1029.8
20180821045006 50 180 2.0 2.0 0.00 0.00 0.00 78 1029.8
20180821044505 51 180 2.0 2.0 0.00 0.00 0.00 78 1029.8
20180821044005 51 180 2.0 3.0 0.00 0.00 0.00 76 1029.8
20180821043505 51 180 2.0 2.0 0.00 0.00 0.00 77 1029.7
20180821043005 51 180 1.0 1.0 0.00 0.00 0.00 78 1029.7
20180821042505 51 180 1.0 2.0 0.00 0.00 0.00 78 1029.7
20180821042005 51 180 2.0 2.0 0.00 0.00 0.00 79 1029.6
20180821041504 51 180 1.0 2.0 0.00 0.00 0.00 79 1029.7
20180821041005 51 180 1.0 2.0 0.00 0.00 0.00 79 1029.8
20180821040505 51 180 0.0 0.0 0.00 0.00 0.00 78 1029.8
20180821040006 51 180 1.0 2.0 0.00 0.00 0.00 77 1030.0
20180821035504 51 157 0.0 1.0 0.00 0.00 0.00 77 1029.9
20180821035005 52 112 0.0 0.0 0.00 0.00 0.00 76 1029.8
20180821034505 52 112 0.0 0.0 0.00 0.00 0.00 75 1029.8
20180821034005 53 67 0.0 0.0 0.00 0.00 0.00 74 1029.9
20180821033505 53 67 0.0 1.0 0.00 0.00 0.00 74 1029.7
20180821033006 54 67 2.0 2.0 0.00 0.00 0.00 72 1029.7
20180821032504 54 67 2.0 3.0 0.00 0.00 0.00 71 1029.6
20180821032006 54 67 3.0 3.0 0.00 0.00 0.00 72 1029.5
20180821031505 54 90 1.0 2.0 0.00 0.00 0.00 72 1029.5
20180821031007 54 90 1.0 1.0 0.00 0.00 0.00 73 1029.4
20180821030506 54 90 0.0 0.0 0.00 0.00 0.00 73 1029.2
20180821030007 54 90 1.0 2.0 0.00 0.00 0.00 72 1029.2
20180821025505 54 90 0.0 1.0 0.00 0.00 0.00 72 1029.3
20180821025005 54 90 1.0 2.0 0.00 0.00 0.00 71 1029.2
20180821024505 54 90 2.0 3.0 0.00 0.00 0.00 72 1028.9
20180821024005 55 67 2.0 3.0 0.00 0.00 0.00 72 1028.8
20180821023505 55 67 3.0 3.0 0.00 0.00 0.00 71 1028.9
20180821023005 56 67 2.0 2.0 0.00 0.00 0.00 69 1028.9
20180821022505 56 67 3.0 3.0 0.00 0.00 0.00 67 1028.8
20180821022005 56 67 4.0 4.0 0.00 0.00 0.00 65 1028.8
20180821021505 57 67 3.0 4.0 0.00 0.00 0.00 66 1028.9
20180821021006 57 112 1.0 1.0 0.00 0.00 0.00 65 1028.9
20180821020504 57 112 1.0 1.0 0.00 0.00 0.00 64 1028.9
20180821020006 58 112 2.0 3.0 0.00 0.00 0.00 61 1028.7
20180821015505 59 67 3.0 3.0 0.00 0.00 0.00 59 1028.5
20180821015005 60 67 3.0 4.0 0.00 0.00 0.00 58 1028.5
20180821014505 61 67 3.0 4.0 0.00 0.00 0.00 57 1028.5
20180821014005 61 48 2.0 3.0 0.00 0.00 0.00 59 1028.5
20180821013505 61 45 2.0 2.0 0.00 0.00 0.00 58 1028.5
20180821013006 62 45 2.0 2.0 0.00 0.00 0.00 58 1028.5
20180821012505 62 45 2.0 2.0 0.00 0.00 0.00 58 1028.3
20180821012005 62 45 1.0 1.0 0.00 0.00 0.00 58 1028.2
20180821011505 63 45 0.0 0.0 0.00 0.00 0.00 57 1028.1
20180821011006 63 45 0.0 0.0 0.00 0.00 0.00 56 1028.0
20180821010505 64 45 1.0 2.0 0.00 0.00 0.00 56 1027.9
20180821010005 64 45 3.0 4.0 0.00 0.00 0.00 54 1027.7
20180821005505 65 45 3.0 4.0 0.00 0.00 0.00 52 1027.7
20180821005006 66 22 3.0 4.0 0.00 0.00 0.00 50 1027.6
20180821004505 66 22 4.0 5.0 0.00 0.00 0.00 49 1027.6
20180821004005 67 22 4.0 5.0 0.00 0.00 0.00 47 1027.6
20180821003505 68 22 5.0 6.0 0.00 0.00 0.00 46 1027.6
20180821003006 68 22 4.0 6.0 0.00 0.00 0.00 45 1027.7
20180821002504 69 22 4.0 6.0 0.00 0.00 0.00 44 1027.8
20180821002006 69 22 5.0 7.0 0.00 0.00 0.00 42 1028.0
20180821001505 70 22 5.0 7.0 0.00 0.00 0.00 42 1028.0
20180821001006 70 22 6.0 7.0 0.00 0.01 0.00 40 1028.0
20180821000505 70 22 5.0 7.0 0.00 0.01 0.00 39 1028.0
20180821000006 70 28 4.0 6.0 0.00 0.01 0.00 37 1028.1
20180820235505 70 22 5.0 6.0 0.00 0.01 0.00 37 1028.1
20180820235004 70 22 5.0 7.0 0.00 0.01 0.00 38 1028.0
20180820234505 70 56 5.0 6.0 0.00 0.01 0.00 36 1028.2
20180820234005 70 44 6.0 8.0 0.00 0.01 0.00 37 1028.0
20180820233504 70 22 6.0 7.0 0.00 0.01 0.00 38 1028.0
20180820233005 71 42 6.0 8.0 0.00 0.01 0.00 36 1027.9
20180820232505 71 66 6.0 8.0 0.00 0.01 0.00 36 1028.1
20180820232006 71 22 6.0 8.0 0.00 0.01 0.00 35 1028.0
20180820231505 71 29 5.0 7.0 0.00 0.01 0.00 35 1028.0
20180820231006 72 23 6.0 9.0 0.00 0.01 0.00 35 1027.8
20180820230505 72 25 7.0 9.0 0.00 0.01 0.00 35 1027.8
20180820230007 72 25 5.0 6.0 0.00 0.01 0.00 35 1027.9
20180820225505 72 67 5.0 6.0 0.00 0.01 0.00 35 1028.0
20180820225005 72 25 5.0 8.0 0.00 0.01 0.00 35 1028.0
20180820224505 73 3 5.0 7.0 0.00 0.01 0.00 34 1027.9
20180820224006 73 2 7.0 10.0 0.00 0.01 0.00 33 1027.9
20180820223504 73 4 5.0 7.0 0.00 0.01 0.00 33 1028.0
20180820223007 73 337 5.0 7.0 0.00 0.01 0.00 33 1028.0
20180820222505 73 19 5.0 7.0 0.00 0.01 0.00 32 1028.0
20180820222005 73 5 5.0 8.0 0.00 0.01 0.00 33 1028.0
20180820221505 73 19 5.0 6.0 0.00 0.01 0.00 32 1027.9
20180820221006 73 11 4.0 6.0 0.00 0.01 0.00 32 1028.0
20180820220505 73 337 5.0 6.0 0.00 0.01 0.00 33 1028.1
20180820220007 73 337 4.0 6.0 0.00 0.01 0.00 31 1028.2
20180820215505 73 301 3.0 4.0 0.00 0.02 0.00 32 1028.2
20180820215005 73 327 6.0 7.0 0.00 0.02 0.00 32 1028.1
20180820214504 73 351 6.0 8.0 0.00 0.02 0.00 32 1028.1
20180820214005 73 337 5.0 7.0 0.00 0.02 0.00 33 1028.1
20180820213505 73 345 4.0 6.0 0.00 0.02 0.00 32 1028.2
20180820213006 73 340 5.0 7.0 0.00 0.02 0.00 33 1028.3
20180820212505 73 334 7.0 9.0 0.00 0.03 0.00 34 1028.4
20180820212005 72 340 5.0 8.0 0.00 0.04 0.00 34 1028.4
20180820211505 72 336 7.0 10.0 0.00 0.07 0.00 33 1028.3
20180820211006 72 5 8.0 11.0 0.00 0.07 0.00 34 1028.4
20180820210505 72 17 5.0 7.0 0.00 0.07 0.00 35 1028.4
20180820210006 72 339 7.0 9.0 0.00 0.07 0.00 36 1028.5
20180820205505 71 349 6.0 10.0 0.00 0.07 0.00 37 1028.5
20180820205006 71 292 5.0 9.0 0.00 0.07 0.00 36 1028.6
20180820204505 71 335 6.0 8.0 0.00 0.07 0.00 37 1028.6
20180820204006 71 337 7.0 10.0 0.00 0.07 0.00 38 1028.7
20180820203505 70 270 4.0 6.0 0.00 0.07 0.00 39 1028.8
20180820203006 70 303 9.0 12.0 0.00 0.07 0.00 40 1028.7
20180820202505 70 334 6.0 8.0 0.00 0.07 0.00 40 1028.8
20180820202005 70 319 8.0 10.0 0.00 0.07 0.00 40 1028.9
20180820201504 70 292 9.0 11.0 0.00 0.07 0.00 41 1029.0
20180820201006 70 301 10.0 14.0 0.00 0.07 0.00 41 1028.9
20180820200505 69 296 6.0 9.0 0.00 0.07 0.00 40 1029.1
20180820200006 69 306 6.0 9.0 0.00 0.07 0.00 41 1028.9
20180820195505 69 304 6.0 8.0 0.00 0.07 0.00 41 1029.1
20180820195005 69 337 9.0 12.0 0.00 0.08 0.00 42 1029.0
20180820194505 69 339 9.0 13.0 0.00 0.08 0.00 42 1029.0
20180820194005 69 292 5.0 8.0 0.00 0.08 0.00 42 1029.1
20180820193505 69 296 7.0 10.0 0.00 0.08 0.00 43 1029.1
20180820193006 68 337 6.0 9.0 0.00 0.08 0.00 44 1029.1
20180820192505 68 300 9.0 12.0 0.00 0.08 0.00 45 1029.1